[[{"header":{"parameterUnit":"m.s-1","parameterCategory":1,"la1":30.2991,"la2":30.254,"lo1":-89.0895,"lo2":-89.0444,"dy":0.0017,"dx":0.0017,"nx":28,"ny":28,"refTime":"2025-01-10T09:00:00:Z","depth":0,"parameterNumber":2,"parameterNumberName":"U-component_of_WINDS"},"data":[0,0,0,0,0,0,0,0,0,0,0,0,0,0,0,0,0,0,0,0,0,0,0,0,0,0,0,0,0,0,0,0,0,0,0,0,0,0,0,0,0,0,0,0,0,0,0,0,0,0,0,0,0,0,0,0,0,0,3.9432,3.9432,0,3.9493,3.9494,3.9495,3.9455,3.9453,3.9451,3.945,3.9515,3.9519,3.9522,0,0,0,0,0,0,0,0,0,0,0,0,0,3.9283,3.9286,3.9432,3.9432,3.9433,3.9493,3.9494,3.9495,3.9455,3.9453,3.9451,3.9449,3.9514,3.9518,3.9522,0,0,0,0,0,0,0,0,0,0,0,0,0,3.9347,3.9287,3.9431,3.9421,3.942,3.9493,3.9494,3.9495,3.9456,3.9453,3.945,3.9448,3.9513,3.9518,3.9523,3.961,0,0,3.9539,3.9541,0,0,0,0,0,0,0,0,3.9343,3.9352,3.9421,3.9421,3.9421,3.9464,3.9466,3.9534,3.9457,3.9442,3.945,3.9446,3.95,3.9506,3.9524,3.9613,3.9616,3.9539,3.9542,3.9545,3.9546,0,0,0,0,0,0,0,3.9339,3.9349,3.9456,3.9423,3.9422,3.9414,3.942,3.9478,3.9486,3.9443,3.9441,3.9448,3.95,3.9519,3.9525,3.9617,3.9539,3.9544,3.9547,3.9549,3.9783,3.9786,0,0,0,0,0,0,3.9335,3.9346,3.9454,3.9458,3.9374,3.9419,3.9425,3.9453,3.9485,3.9488,3.9451,3.9446,3.9512,3.9519,3.9528,3.9633,3.9545,3.9549,3.9552,3.978,3.9784,3.9787,0,0,0,0,0,0,3.9332,3.9345,3.9452,3.9401,3.9414,3.9424,3.9455,3.9455,3.9475,3.9491,3.9492,3.9469,3.951,3.952,3.959,3.9635,3.9552,3.9556,3.9776,3.9781,3.9786,3.9844,0,0,0,0,0,0,3.9328,3.9344,3.9376,3.9402,3.9417,3.9512,3.9458,3.9459,3.9484,3.9478,3.9508,3.9511,3.9508,3.9583,3.9595,3.964,3.9561,3.9773,3.9779,3.9784,3.9838,3.985,3.986,0,0,0,0,0,3.9322,3.9391,3.9378,3.9391,3.9458,3.9515,3.9524,3.9519,3.9487,3.9521,3.9531,3.951,3.9628,3.959,3.9604,3.9651,3.977,3.9777,3.9784,3.9833,3.9848,3.986,0,0,0,0,0,0,3.937,3.9394,3.938,3.9458,3.9485,3.9508,3.955,3.9534,3.9571,3.9564,3.9558,3.9565,3.9638,3.9652,3.961,3.9739,3.9694,3.9704,3.9727,3.9741,3.9752,3.9747,3.9565,0,0,0,0,0,3.939,3.9434,3.9452,3.952,3.9533,3.954,3.9564,3.9559,3.9586,3.9597,3.9613,3.9641,3.9685,3.9714,3.9754,3.984,3.9847,3.988,3.9891,3.99,3.9908,3.9956,3.9971,3.981,3.981,3.981,0,0,3.9431,3.9449,3.9477,3.953,3.9549,3.9596,3.9549,3.96,3.9635,3.9605,3.9672,3.9685,3.9716,3.9795,3.983,3.9808,3.9955,3.9909,3.9916,3.992,3.9965,3.998,3.9993,3.9815,3.9814,3.9813,0,0,3.9529,3.9547,3.9606,3.9627,3.9657,3.9661,3.9675,3.9701,3.9708,3.9775,3.9754,3.9796,3.9871,3.9895,3.9916,4.0026,4.0008,4.0039,4.0097,4.0143,4.0156,4.0167,4.0207,4.0221,4.0048,4.0048,4.0048,0,3.9577,3.9645,3.9638,3.9691,3.9715,3.969,3.975,3.9771,3.9814,3.9832,3.9806,3.9901,3.992,4.0004,4.0031,4.0049,4.0066,4.0036,4.0155,4.0166,4.0176,4.0214,4.0229,4.0052,4.0052,4.0051,4.0051,0,3.9702,3.975,3.9793,3.9835,3.9864,3.992,3.9923,3.9954,3.9946,3.9953,4.0023,4.0045,4.0091,4.011,4.0103,4.0194,4.018,4.0155,4.011,4.0195,4.0231,4.0245,4.0057,4.0056,4.0055,4.0054,0,0,3.9831,3.9868,3.9885,3.9904,3.9936,3.9974,4.003,4.0073,4.01,4.0131,4.0179,4.0243,4.0221,4.0246,4.0241,4.0282,4.0368,4.0252,4.0253,4.0273,4.0471,4.0489,4.0506,4.0357,4.0359,4.0362,4.0468,0,3.9931,4.0027,4.0024,4.0114,4.0159,4.0137,4.0185,4.0212,4.022,4.026,4.027,4.0316,4.0283,4.0298,4.0337,4.0349,4.0408,4.0342,4.0402,4.0404,4.0394,4.0524,4.0543,4.0643,4.0482,4.0484,4.0486,0,4.0061,4.0096,4.019,4.0217,4.0236,4.028,4.032,4.0359,4.0389,4.0392,4.0421,4.041,4.0468,4.0422,4.0503,4.0458,4.0483,4.0493,4.0497,4.0502,4.045,4.0533,4.0674,4.0689,4.0508,4.0506,4.0504,0,4.0146,4.0217,4.0283,4.03,4.0333,4.0364,4.038,4.0406,4.0434,4.047,4.0487,4.053,4.0554,4.0588,4.059,4.0556,4.0672,4.0625,4.0677,4.0677,4.0702,4.07,4.0849,4.0718,4.0718,4.0718,4.0717,0,4.0259,4.0318,4.0322,4.0362,4.0428,4.0424,4.049,4.0502,4.0527,4.057,4.0554,4.0596,4.0596,4.0639,4.0641,4.0708,4.0719,4.0724,4.0724,4.0726,4.0725,4.0741,4.0734,4.0722,4.0721,4.072,4.0719,0,4.0365,4.037,4.044,4.0466,4.0474,4.0521,4.0543,4.0583,4.059,4.0646,4.0659,4.0671,4.0721,4.0726,4.0784,4.0786,4.0867,4.0859,4.0856,4.0855,4.0906,4.0902,4.1071,4.1093,4.0948,4.0949,4.095,0,4.0436,4.0481,4.0511,4.0539,4.0556,4.0601,4.0628,4.0627,4.0656,4.0694,4.073,4.0778,4.0816,4.0897,4.0911,4.0956,4.095,4.1006,4.0957,4.0957,4.0951,4.0948,4.0953,4.1016,4.1017,4.1019,4.102,0,4.0562,4.0563,4.0602,4.0644,4.0677,4.0709,4.074,4.0764,4.0766,4.0801,4.0851,4.0881,4.094,4.0989,4.1033,4.105,4.1036,4.1035,4.105,4.1051,4.1048,4.1051,4.0883,4.1031,4.103,4.1029,4.1029,4.1028,4.0653,4.0692,4.072,4.0765,4.0788,4.0817,4.0855,4.0868,4.0909,4.0957,4.0954,4.101,4.104,4.1098,4.1119,4.1163,4.1145,4.1166,4.1171,4.1176,4.1181,4.1041,4.1172,4.1171,4.1171,4.1171,4.1171,0,4.0779,4.0796,4.0837,4.088,4.0916,4.0899,4.0933,4.0964,4.1013,4.1042,4.108,4.1139,4.1186,4.1205,4.1252,4.1284,4.1279,4.1296,4.1294,4.1298,4.1195,4.1178,4.13,4.1299,4.1299,4.1299,4.1299,4.1299,4.0848,4.0914,4.0918,4.0995,4.1012,4.1065,4.1086,4.1113,4.1136,4.1202,4.1241,4.1253,4.1278,4.1327,4.137,4.1375,4.1393,4.1413,4.1415,4.1318,4.1305,4.1293,4.1277,4.1417,4.1417,4.1514,4.1515,4.1516]},{"header":{"parameterUnit":"m.s-1","parameterCategory":1,"la1":30.2991,"la2":30.254,"lo1":-89.0895,"lo2":-89.0444,"dy":0.0017,"dx":0.0017,"nx":28,"ny":28,"refTime":"2025-01-10T09:00:00:Z","depth":0,"parameterNumber":3,"parameterNumberName":"V-component_of_WINDS"},"data":[0,0,0,0,0,0,0,0,0,0,0,0,0,0,0,0,0,0,0,0,0,0,0,0,0,0,0,0,0,0,0,0,0,0,0,0,0,0,0,0,0,0,0,0,0,0,0,0,0,0,0,0,0,0,0,0,0,0,-4.6998,-4.6999,0,-4.7077,-4.7078,-4.7079,-4.7032,-4.703,-4.7028,-4.7026,-4.7104,-4.7108,-4.7112,0,0,0,0,0,0,0,0,0,0,0,0,0,-4.6805,-4.6809,-4.6998,-4.6999,-4.7,-4.7077,-4.7078,-4.7079,-4.7033,-4.703,-4.7027,-4.7025,-4.7103,-4.7107,-4.7112,0,0,0,0,0,0,0,0,0,0,0,0,0,-4.6887,-4.681,-4.6998,-4.6986,-4.6986,-4.7077,-4.7078,-4.7079,-4.7033,-4.703,-4.7027,-4.7023,-4.7101,-4.7107,-4.7113,-4.7219,0,0,-4.7132,-4.7135,0,0,0,0,0,0,0,0,-4.6882,-4.6894,-4.6987,-4.6987,-4.6987,-4.7041,-4.7039,-4.7126,-4.7034,-4.7015,-4.7026,-4.7022,-4.7086,-4.7093,-4.7115,-4.7223,-4.7226,-4.7133,-4.7137,-4.7139,-4.7141,0,0,0,0,0,0,0,-4.6877,-4.689,-4.7029,-4.6988,-4.6988,-4.6976,-4.6984,-4.7055,-4.7068,-4.7017,-4.7013,-4.7024,-4.7085,-4.7109,-4.7117,-4.7227,-4.7133,-4.7138,-4.7142,-4.7144,-4.7426,-4.743,0,0,0,0,0,0,-4.6872,-4.6886,-4.7027,-4.7031,-4.6925,-4.6983,-4.6991,-4.7027,-4.7067,-4.707,-4.7026,-4.7021,-4.71,-4.7109,-4.7119,-4.7246,-4.7139,-4.7145,-4.7149,-4.7422,-4.7427,-4.7431,0,0,0,0,0,0,-4.6868,-4.6885,-4.7023,-4.6958,-4.6975,-4.699,-4.703,-4.7031,-4.7055,-4.7075,-4.7077,-4.7049,-4.7098,-4.711,-4.7195,-4.7248,-4.7148,-4.7154,-4.7418,-4.7424,-4.7429,-4.75,0,0,0,0,0,0,-4.6863,-4.6884,-4.6925,-4.6959,-4.6978,-4.7099,-4.7033,-4.7035,-4.7066,-4.706,-4.7096,-4.7099,-4.7096,-4.7186,-4.7201,-4.7255,-4.7158,-4.7413,-4.7421,-4.7427,-4.7493,-4.7508,-4.752,0,0,0,0,0,-4.6856,-4.6941,-4.6927,-4.6944,-4.703,-4.7102,-4.7113,-4.7108,-4.707,-4.7111,-4.7124,-4.7098,-4.724,-4.7195,-4.7212,-4.7268,-4.741,-4.7419,-4.7427,-4.7487,-4.7505,-4.752,0,0,0,0,0,0,-4.6911,-4.6945,-4.693,-4.7029,-4.7063,-4.7094,-4.7145,-4.7127,-4.7172,-4.7164,-4.7156,-4.7165,-4.7253,-4.7269,-4.7218,-4.7373,-4.7319,-4.7331,-4.7359,-4.7376,-4.7389,-4.7383,-4.7164,0,0,0,0,0,-4.6934,-4.6991,-4.7018,-4.7102,-4.712,-4.713,-4.7161,-4.7155,-4.719,-4.7204,-4.7223,-4.7257,-4.7309,-4.7343,-4.7393,-4.7496,-4.7503,-4.7543,-4.7556,-4.7567,-4.7578,-4.7634,-4.7652,-4.7459,-4.7459,-4.7458,0,0,-4.6983,-4.7009,-4.7045,-4.7114,-4.7139,-4.7198,-4.7142,-4.7206,-4.7249,-4.7213,-4.7294,-4.731,-4.7347,-4.7442,-4.7484,-4.7458,-4.7633,-4.7578,-4.7586,-4.7591,-4.7644,-4.7663,-4.7679,-4.7464,-4.7463,-4.7462,0,0,-4.7103,-4.7128,-4.7201,-4.7229,-4.7269,-4.7276,-4.7293,-4.7328,-4.7337,-4.7419,-4.7393,-4.7444,-4.7534,-4.7562,-4.7588,-4.772,-4.7697,-4.7736,-4.7806,-4.7861,-4.7876,-4.789,-4.7937,-4.7954,-4.7747,-4.7747,-4.7747,0,-4.7158,-4.7246,-4.7241,-4.7307,-4.7338,-4.731,-4.7384,-4.7411,-4.7465,-4.7487,-4.7457,-4.757,-4.7593,-4.7694,-4.7727,-4.7749,-4.7768,-4.7732,-4.7874,-4.7888,-4.79,-4.7945,-4.7963,-4.7751,-4.7751,-4.775,-4.775,0,-4.7312,-4.7373,-4.7428,-4.7482,-4.7519,-4.7589,-4.7595,-4.7633,-4.7624,-4.7634,-4.7717,-4.7745,-4.7799,-4.7823,-4.7814,-4.7923,-4.7905,-4.7875,-4.7821,-4.7923,-4.7965,-4.7982,-4.7758,-4.7756,-4.7755,-4.7754,0,0,-4.7467,-4.7519,-4.7539,-4.7564,-4.7607,-4.7654,-4.7722,-4.7777,-4.781,-4.7849,-4.7906,-4.7984,-4.7957,-4.7986,-4.7981,-4.8029,-4.8132,-4.7993,-4.7994,-4.8018,-4.8254,-4.8276,-4.8296,-4.8118,-4.8121,-4.8124,-4.8251,0,-4.7588,-4.771,-4.7708,-4.782,-4.7877,-4.7852,-4.7911,-4.7944,-4.7955,-4.8004,-4.8016,-4.8072,-4.8031,-4.8049,-4.8096,-4.811,-4.8179,-4.8101,-4.817,-4.8173,-4.8162,-4.8318,-4.8342,-4.846,-4.8267,-4.827,-4.8272,0,-4.7746,-4.7792,-4.791,-4.7946,-4.7969,-4.8023,-4.8074,-4.8122,-4.8158,-4.8163,-4.8197,-4.8185,-4.8254,-4.8199,-4.8294,-4.8241,-4.8269,-4.8281,-4.8285,-4.8291,-4.8228,-4.8328,-4.8498,-4.8515,-4.8298,-4.8296,-4.8294,0,-4.7847,-4.7938,-4.802,-4.8042,-4.8086,-4.8125,-4.8145,-4.8179,-4.8212,-4.8256,-4.8278,-4.8329,-4.8357,-4.8397,-4.8398,-4.8357,-4.8495,-4.8439,-4.85,-4.85,-4.853,-4.8528,-4.8706,-4.8549,-4.8549,-4.8548,-4.8548,0,-4.7983,-4.8056,-4.8066,-4.8117,-4.8198,-4.8196,-4.8277,-4.8293,-4.8323,-4.8377,-4.8358,-4.8408,-4.8407,-4.8458,-4.846,-4.8539,-4.8552,-4.8557,-4.8557,-4.8559,-4.8558,-4.8577,-4.8568,-4.8553,-4.8552,-4.8551,-4.855,0,-4.8109,-4.8119,-4.8207,-4.8243,-4.8253,-4.8311,-4.8341,-4.8389,-4.8399,-4.8467,-4.8483,-4.8498,-4.8557,-4.8563,-4.8631,-4.8633,-4.8728,-4.8719,-4.8716,-4.8714,-4.8775,-4.877,-4.8972,-4.8998,-4.8824,-4.8826,-4.8827,0,-4.8195,-4.8251,-4.8293,-4.8328,-4.835,-4.8407,-4.8441,-4.8441,-4.8478,-4.8525,-4.8568,-4.8625,-4.8671,-4.8767,-4.8784,-4.8836,-4.8828,-4.8895,-4.8835,-4.8836,-4.8829,-4.8825,-4.8831,-4.8906,-4.8908,-4.891,-4.8911,0,-4.8347,-4.8349,-4.84,-4.8453,-4.8495,-4.8537,-4.8576,-4.8605,-4.861,-4.8652,-4.8713,-4.8749,-4.882,-4.8878,-4.8929,-4.8949,-4.8931,-4.893,-4.8947,-4.8949,-4.8946,-4.8949,-4.8747,-4.8925,-4.8924,-4.8923,-4.8922,-4.8921,-4.8455,-4.8504,-4.8542,-4.8599,-4.8629,-4.8666,-4.8713,-4.873,-4.8781,-4.884,-4.8837,-4.8904,-4.894,-4.9008,-4.9032,-4.9085,-4.9062,-4.9086,-4.9092,-4.9098,-4.9105,-4.8938,-4.9094,-4.9094,-4.9093,-4.9093,-4.9093,0,-4.8606,-4.8629,-4.8682,-4.8738,-4.8783,-4.8764,-4.8807,-4.8846,-4.8905,-4.8941,-4.8988,-4.9058,-4.9114,-4.9136,-4.9191,-4.9229,-4.9222,-4.9243,-4.924,-4.9245,-4.9122,-4.9102,-4.9248,-4.9248,-4.9248,-4.9248,-4.9248,-4.9247,-4.8689,-4.8771,-4.8778,-4.8875,-4.8897,-4.8964,-4.899,-4.9024,-4.9053,-4.9133,-4.918,-4.9195,-4.9225,-4.9282,-4.9333,-4.9338,-4.9358,-4.9383,-4.9385,-4.9269,-4.9253,-4.9238,-4.922,-4.9388,-4.9388,-4.9503,-4.9504,-4.9505]}]]